Location: Newark
(49.8348°N, 24.0280°E)
Time: 02:04:10
(UTC+00:00)

Explorer 7 - Pass Details

Date: 27 January 2020
Orbit: 485 x 679 km, 50.3° (Epoch: 25 February)

Event Time Altitude Azimuth Distance (km) Brightness Sun altitude
Rises 02:04:26 0° 284° (WNW) 2,566 - -38.3°
Reaches altitude 10° 02:06:45 10° 274° (W) 1,696 - -38.0°
Maximum altitude 02:10:07 29° 212° (SSW) 943 - -37.5°
Drops below altitude 10° 02:13:35 10° 151° (SSE) 1,757 - -36.9°
Sets 02:16:02 0° 140° (SE) 2,677 - -36.6°
